Home   Weather   Cahul   Past weeks

Flag for Moldova Past Weather in Cahul, Moldova — Yesterday and Last 2 Weeks

Now
56 °F

Clear.


Feels Like: 56 °F
Forecast: 48 / 65 °F
Wind: 2 mph from Northwest

Location: Galati

Current Time: Sep 27, 2016 at 1:32:05 AM

Latest Report: Sep 27, 2016 at 12:00 AM


Visibility: 13 mi

Pressure: 30.25 "Hg

Humidity: 75%

Dew Point: 48 °F

Location of CahulLocation

Past Weather in Cahul — Graph

°F

Cahul Temperature Yesterday

Maximum temperature yesterday: 65 °F (at 3:00 PM)
Minimum temperature yesterday: 49 °F (at 7:00 AM)
Average temperature yesterday: 57 °F

High & Low Weather Summary for the Past Weeks

 TemperatureHumidityPressure
High90 °F (Sep 13, 4:00 PM)100% (Sep 19, 5:00 AM)30.32 "Hg (Sep 19, 5:00 AM)
Low43 °F (Sep 22, 7:00 AM)23% (Sep 12, 3:00 PM)29.65 "Hg (Sep 20, 4:00 AM)
Average64 °F67%30.02 "Hg
* Reported Sep 12 12:00 AM — Sep 27 12:00 AM, Cahul, Weather by CustomWeather, © 2016

Note: Actual official high and low records may vary slightly from our data, if they occured in-between our weather recording intervals... More about our weather records

Advertising

Cahul Weather History for the Previous 24 Hours

Scroll right to see more
 ConditionsComfort  
Time TempWeatherWind HumidityBarometerVisibility
12:00 AM
Tue, Sep 27
56 °FClear.2 mph75%30.25 "Hg12 mi
11:00 PM
Mon, Sep 26
58 °FOvercast.2 mph71%30.24 "Hg12 mi
10:00 PM58 °FOvercast.2 mph73%30.23 "Hg12 mi
9:00 PM59 °FOvercast.2 mph70%30.22 "Hg12 mi
5:00 PM65 °FPartly sunny.2 mph54%30.18 "Hg12 mi
4:00 PM65 °FPartly sunny.2 mph53%30.17 "Hg12 mi
3:00 PM65 °FPartly sunny.3 mph52%30.17 "Hg12 mi
2:00 PM64 °FOvercast.3 mph61%30.17 "Hg12 mi
1:00 PM64 °FPartly sunny.3 mph63%30.16 "Hg12 mi
12:00 PM62 °FOvercast.3 mph72%30.16 "Hg12 mi
11:00 AM58 °FOvercast.2 mph83%30.16 "Hg12 mi
10:00 AM56 °FPassing clouds.3 mph86%30.15 "Hg12 mi
9:00 AM53 °FPassing clouds.3 mph90%30.14 "Hg6 mi
8:00 AM51 °FPassing clouds.2 mph94%30.13 "Hg6 mi
7:00 AM49 °FPassing clouds.1 mph94%30.12 "Hg6 mi
6:00 AM51 °FClear.2 mph89%30.11 "Hg6 mi
5:00 AM50 °FClear.1 mph91%30.11 "Hg6 mi
4:00 AM50 °FClear.1 mph93%30.12 "Hg6 mi
3:00 AM52 °FClear.1 mph88%30.13 "Hg6 mi
2:00 AM54 °FClear.2 mph85%30.13 "Hg6 mi
1:00 AM55 °FClear.2 mph84%30.13 "Hg6 mi
Weather by CustomWeather, © 2016

See weather overviewHow to use our weather pages